History for KIDP

Independence, KS

Daily Weekly Monthly
Daily Summary for Thursday, March 21, 2019
  Actual: Average: Record:
Temperature
Mean Temperature: 50 °F / 10 °C - :  
Max Temperature: 62 °F / 16 °C 58 °F / 14 °C 88 °F / 31 °C (1997)
Min Temperature: 37 °F / 3 °C 36 °F / 2 °C 21 °F / -6 °C (2002)
Degree Days
Heating Degree Days: 16    
Moisture
Dew Point 34 °F / 1 °C    
Average Humidity 62    
Maximum Humidity 91    
Minimum Humidity 29    
Precipitation
Precipitation 0.00 in / 0.0 cm - - ()
Sea Level Pressure
Sea Level Pressure 30.20 in / 1022.45 hPa   
Wind
Wind Speed 8 mph / 14 km/h ()  
Max Wind Speed 14 mph / 22 km/h   
Max Gust Speed 21 mph / 33 km/h   
Visibility 10.0 miles / 16.1 kilometers   
Events     
Averages and records for this station are not official NWS values.
Key: T is trace of precipitation, MM is missing value
Source: Averaged Metar Reports
Seasonal Weather Averages

Graphs

Observations

History Graphs Observations

Obs Go Here...

Features

Weather Apps

WunderRadio

Weather Underground Apps
Check out our wide variety of mobile and setup applications.

Weather Underground Applications

Top of Page

© Copyright 2019
The Weather Company, LLC
Time(CDT)TemperatureDew PointHumidity Sea Level Pressure Visibility Wind DirectionWind SpeedGust SpeedPrecipitationEvents Conditions
12:15 AM 45.7 °F / 7.6 °C 30.7 °F / -0.7 °C 56% 30.13 in / 1020.2 hPa 10.0 miles / 16.1 kilometers West 6.9 mph / 11.1 km/h - N/A   Clear
12:35 AM 43.7 °F / 6.5 °C 30.0 °F / -1.1 °C 59% 30.13 in / 1020.2 hPa 10.0 miles / 16.1 kilometers West 9.2 mph / 14.8 km/h - N/A   Clear
12:55 AM 42.8 °F / 6.0 °C 30.2 °F / -1.0 °C 61% 30.13 in / 1020.2 hPa 10.0 miles / 16.1 kilometers West 8.1 mph / 13.0 km/h - N/A   Clear
1:15 AM 41.2 °F / 5.1 °C 30.9 °F / -0.6 °C 67% 30.13 in / 1020.2 hPa 10.0 miles / 16.1 kilometers WNW 8.1 mph / 13.0 km/h - N/A   Clear
1:35 AM 41.0 °F / 5.0 °C 30.9 °F / -0.6 °C 67% 30.14 in / 1020.5 hPa 10.0 miles / 16.1 kilometers WNW 8.1 mph / 13.0 km/h - N/A   Clear
1:55 AM 40.6 °F / 4.8 °C 31.1 °F / -0.5 °C 69% 30.14 in / 1020.5 hPa 10.0 miles / 16.1 kilometers WNW 9.2 mph / 14.8 km/h - N/A   Clear
2:15 AM 40.5 °F / 4.7 °C 31.1 °F / -0.5 °C 69% 30.15 in / 1020.9 hPa 10.0 miles / 16.1 kilometers NNW 4.6 mph / 7.4 km/h - N/A   Clear
2:35 AM 42.4 °F / 5.8 °C 31.1 °F / -0.5 °C 64% 30.16 in / 1021.2 hPa 10.0 miles / 16.1 kilometers NNW 8.1 mph / 13.0 km/h - N/A   Clear
2:55 AM 40.8 °F / 4.9 °C 33.8 °F / 1.0 °C 76% 30.16 in / 1021.2 hPa 10.0 miles / 16.1 kilometers NNW 11.5 mph / 18.5 km/h - N/A   Clear
3:15 AM 42.3 °F / 5.7 °C 35.6 °F / 2.0 °C 77% 30.16 in / 1021.2 hPa 10.0 miles / 16.1 kilometers NNW 11.5 mph / 18.5 km/h - N/A   Clear
3:35 AM 42.6 °F / 5.9 °C 36.5 °F / 2.5 °C 79% 30.17 in / 1021.6 hPa 10.0 miles / 16.1 kilometers North 11.5 mph / 18.5 km/h - N/A   Clear
3:55 AM 41.9 °F / 5.5 °C 36.3 °F / 2.4 °C 81% 30.17 in / 1021.6 hPa 10.0 miles / 16.1 kilometers NNW 10.4 mph / 16.7 km/h - N/A   Clear
4:15 AM 41.4 °F / 5.2 °C 35.6 °F / 2.0 °C 80% 30.17 in / 1021.6 hPa 10.0 miles / 16.1 kilometers NNW 9.2 mph / 14.8 km/h - N/A   Clear
4:35 AM 40.6 °F / 4.8 °C 35.6 °F / 2.0 °C 82% 30.17 in / 1021.6 hPa 10.0 miles / 16.1 kilometers NNW 10.4 mph / 16.7 km/h - N/A   Clear
4:55 AM 41.7 °F / 5.4 °C 36.3 °F / 2.4 °C 81% 30.18 in / 1021.9 hPa 10.0 miles / 16.1 kilometers NNW 11.5 mph / 18.5 km/h - N/A   Clear
5:15 AM 40.5 °F / 4.7 °C 36.0 °F / 2.2 °C 84% 30.18 in / 1021.9 hPa 10.0 miles / 16.1 kilometers NNW 10.4 mph / 16.7 km/h - N/A   Clear
5:35 AM 37.8 °F / 3.2 °C 34.5 °F / 1.4 °C 88% 30.19 in / 1022.2 hPa 10.0 miles / 16.1 kilometers NNW 8.1 mph / 13.0 km/h - N/A   Clear
5:55 AM 39.6 °F / 4.2 °C 35.8 °F / 2.1 °C 86% 30.19 in / 1022.2 hPa 10.0 miles / 16.1 kilometers NNW 10.4 mph / 16.7 km/h - N/A   Clear
6:15 AM 37.4 °F / 3.0 °C 34.5 °F / 1.4 °C 89% 30.20 in / 1022.6 hPa 10.0 miles / 16.1 kilometers NNW 8.1 mph / 13.0 km/h - N/A   Clear
6:35 AM 38.5 °F / 3.6 °C 35.4 °F / 1.9 °C 89% 30.20 in / 1022.6 hPa 10.0 miles / 16.1 kilometers NNW 10.4 mph / 16.7 km/h - N/A   Clear
6:55 AM 37.2 °F / 2.9 °C 34.7 °F / 1.5 °C 91% 30.20 in / 1022.6 hPa 10.0 miles / 16.1 kilometers North 9.2 mph / 14.8 km/h - N/A   Clear
7:15 AM 37.8 °F / 3.2 °C 35.4 °F / 1.9 °C 91% 30.21 in / 1022.9 hPa 10.0 miles / 16.1 kilometers North 10.4 mph / 16.7 km/h - N/A   Clear
7:35 AM 38.7 °F / 3.7 °C 36.0 °F / 2.2 °C 90% 30.21 in / 1022.9 hPa 10.0 miles / 16.1 kilometers North 10.4 mph / 16.7 km/h - N/A   Clear
8:15 AM 40.5 °F / 4.7 °C 37.4 °F / 3.0 °C 89% 30.22 in / 1023.2 hPa 10.0 miles / 16.1 kilometers NNW 9.2 mph / 14.8 km/h - N/A   Clear
8:35 AM 42.1 °F / 5.6 °C 37.8 °F / 3.2 °C 85% 30.23 in / 1023.6 hPa 10.0 miles / 16.1 kilometers NNW 11.5 mph / 18.5 km/h - N/A   Clear
8:55 AM 43.0 °F / 6.1 °C 38.1 °F / 3.4 °C 83% 30.24 in / 1023.9 hPa 10.0 miles / 16.1 kilometers NNW 11.5 mph / 18.5 km/h - N/A   Clear
9:15 AM 43.9 °F / 6.6 °C 38.1 °F / 3.4 °C 80% 30.24 in / 1023.9 hPa 10.0 miles / 16.1 kilometers North 13.8 mph / 22.2 km/h - N/A   Clear
9:35 AM 45.0 °F / 7.2 °C 38.1 °F / 3.4 °C 77% 30.25 in / 1024.3 hPa 10.0 miles / 16.1 kilometers North 10.4 mph / 16.7 km/h - N/A   Clear
9:55 AM 45.9 °F / 7.7 °C 38.1 °F / 3.4 °C 74% 30.25 in / 1024.3 hPa 10.0 miles / 16.1 kilometers North 9.2 mph / 14.8 km/h - N/A   Clear
10:15 AM 47.5 °F / 8.6 °C 38.5 °F / 3.6 °C 71% 30.25 in / 1024.3 hPa 10.0 miles / 16.1 kilometers North 9.2 mph / 14.8 km/h - N/A   Clear
10:35 AM 48.9 °F / 9.4 °C 38.1 °F / 3.4 °C 66% 30.25 in / 1024.3 hPa 10.0 miles / 16.1 kilometers North 9.2 mph / 14.8 km/h - N/A   Clear
10:55 AM 49.6 °F / 9.8 °C 38.8 °F / 3.8 °C 66% 30.25 in / 1024.3 hPa 10.0 miles / 16.1 kilometers NNW 8.1 mph / 13.0 km/h - N/A   Clear
11:15 AM 50.0 °F / 10.0 °C 38.5 °F / 3.6 °C 65% 30.25 in / 1024.3 hPa 10.0 miles / 16.1 kilometers North 8.1 mph / 13.0 km/h - N/A   Clear
11:35 AM 50.9 °F / 10.5 °C 37.8 °F / 3.2 °C 61% 30.25 in / 1024.3 hPa 10.0 miles / 16.1 kilometers North 12.7 mph / 20.4 km/h - N/A   Clear
11:55 AM 52.0 °F / 11.1 °C 36.7 °F / 2.6 °C 56% 30.25 in / 1024.3 hPa 10.0 miles / 16.1 kilometers NNW 13.8 mph / 22.2 km/h - N/A   Clear
12:15 PM 52.3 °F / 11.3 °C 36.0 °F / 2.2 °C 54% 30.25 in / 1024.3 hPa 10.0 miles / 16.1 kilometers North 12.7 mph / 20.4 km/h - N/A   Clear
12:35 PM 53.6 °F / 12.0 °C 36.0 °F / 2.2 °C 51% 30.24 in / 1023.9 hPa 10.0 miles / 16.1 kilometers NNW 10.4 mph / 16.7 km/h 16.1 mph / 25.9 km/h N/A   Clear
12:55 PM 54.9 °F / 12.7 °C 36.3 °F / 2.4 °C 50% 30.23 in / 1023.6 hPa 10.0 miles / 16.1 kilometers NW 11.5 mph / 18.5 km/h 20.7 mph / 33.3 km/h N/A   Clear
1:15 PM 55.0 °F / 12.8 °C 35.2 °F / 1.8 °C 47% 30.23 in / 1023.6 hPa 10.0 miles / 16.1 kilometers NW 6.9 mph / 11.1 km/h - N/A   Clear
1:35 PM 55.9 °F / 13.3 °C 34.5 °F / 1.4 °C 45% 30.22 in / 1023.2 hPa 10.0 miles / 16.1 kilometers North 8.1 mph / 13.0 km/h - N/A   Clear
1:55 PM 57.0 °F / 13.9 °C 34.3 °F / 1.3 °C 42% 30.22 in / 1023.2 hPa 10.0 miles / 16.1 kilometers North 10.4 mph / 16.7 km/h 17.3 mph / 27.8 km/h N/A   Clear
2:15 PM 57.7 °F / 14.3 °C 34.3 °F / 1.3 °C 41% 30.21 in / 1022.9 hPa 10.0 miles / 16.1 kilometers North 10.4 mph / 16.7 km/h - N/A   Clear
2:35 PM 58.8 °F / 14.9 °C 34.5 °F / 1.4 °C 40% 30.21 in / 1022.9 hPa 10.0 miles / 16.1 kilometers North 8.1 mph / 13.0 km/h - N/A   Clear
2:55 PM 59.4 °F / 15.2 °C 33.6 °F / 0.9 °C 38% 30.20 in / 1022.6 hPa 10.0 miles / 16.1 kilometers NNW 8.1 mph / 13.0 km/h - N/A   Clear
3:35 PM 60.1 °F / 15.6 °C 32.0 °F / -0.0 °C 35% 30.20 in / 1022.6 hPa 10.0 miles / 16.1 kilometers NNE 5.8 mph / 9.3 km/h - N/A   Clear
3:55 PM 60.4 °F / 15.8 °C 32.0 °F / 0.0 °C 34% 30.19 in / 1022.2 hPa 10.0 miles / 16.1 kilometers North 9.2 mph / 14.8 km/h - N/A   Clear
4:15 PM 61.2 °F / 16.2 °C 30.7 °F / -0.7 °C 32% 30.19 in / 1022.2 hPa 10.0 miles / 16.1 kilometers NNW 6.9 mph / 11.1 km/h - N/A   Clear
4:35 PM 62.1 °F / 16.7 °C 30.7 °F / -0.7 °C 31% 30.19 in / 1022.2 hPa 10.0 miles / 16.1 kilometers North 10.4 mph / 16.7 km/h - N/A   Clear
4:55 PM 61.7 °F / 16.5 °C 30.2 °F / -1.0 °C 30% 30.18 in / 1021.9 hPa 10.0 miles / 16.1 kilometers North 6.9 mph / 11.1 km/h - N/A   Clear
5:15 PM 62.4 °F / 16.9 °C 30.7 °F / -0.7 °C 30% 30.18 in / 1021.9 hPa 10.0 miles / 16.1 kilometers North 10.4 mph / 16.7 km/h - N/A   Clear
5:35 PM 62.1 °F / 16.7 °C 30.0 °F / -1.1 °C 30% 30.18 in / 1021.9 hPa 10.0 miles / 16.1 kilometers NW 5.8 mph / 9.3 km/h - N/A   Clear
5:55 PM 61.9 °F / 16.6 °C 29.3 °F / -1.5 °C 29% 30.17 in / 1021.6 hPa 10.0 miles / 16.1 kilometers NW 6.9 mph / 11.1 km/h - N/A   Clear
6:15 PM 61.7 °F / 16.5 °C 28.8 °F / -1.8 °C 29% 30.17 in / 1021.6 hPa 10.0 miles / 16.1 kilometers North 6.9 mph / 11.1 km/h - N/A   Clear
6:35 PM 60.4 °F / 15.8 °C 30.7 °F / -0.7 °C 33% 30.17 in / 1021.6 hPa 10.0 miles / 16.1 kilometers North 4.6 mph / 7.4 km/h - N/A   Clear
6:55 PM 58.3 °F / 14.6 °C 31.1 °F / -0.5 °C 36% 30.16 in / 1021.2 hPa 10.0 miles / 16.1 kilometers NNE 8.1 mph / 13.0 km/h - N/A   Clear